Telluride, CO

3:12 PM MDT on June 28, 2017 (GMT -0600)
Telluride Regional

Weather History for KTEX - April, 2012

Change the Weather History Date:

Tuesday, April 10, 2012

  Actual Average Record
Temperature  
Mean Temperature 50 °F -  
Max Temperature 62 °F 43 °F 62 °F (2012)
Min Temperature 39 °F 24 °F 10 °F (2005)
Degree Days  
Heating Degree Days 14    
Moisture  
Dew Point 12 °F    
Average Humidity 23    
Maximum Humidity 38    
Minimum Humidity 10    
Precipitation  
Precipitation 0.00 in - - ()
Sea Level Pressure  
Sea Level Pressure 30.25 in    
Wind  
Wind Speed 7 mph (SE)    
Max Wind Speed 15 mph    
Max Gust Speed 24 mph    
Visibility 10 miles    
Events      
Averages and records for this station are not official NWS values.
T = Trace of Precipitation, MM = Missing Value Source: NWS Daily Summary

Daily Weather History Graph

Daily Weather History Graph

Search for Another Location

Airport or City:

Trip Planner

Search our weather history database for the weather conditions in past years. The results will help you decide how hot, cold, wet, or windy it might be!

Date:

Astronomy

Apr. 10, 2012 Rise Set
Actual Time 6:42 AM MDT 7:43 PM MDT
Civil Twilight 6:15 AM MDT 8:10 PM MDT
Nautical Twilight 5:43 AM MDT 8:42 PM MDT
Astronomical Twilight 5:10 AM MDT 9:15 PM MDT
Moon No Moon Rise 9:34 AM MDT (4/10)
Length of Visible Light 13h 54m
Length of Day
13h 00m
Waning Gibbous, 79% of the Moon is Illuminated
Apr 10
Waning Gibbous
Apr 13
Last Quarter
Apr 21
New
Apr 29
First Quarter
May 5
Full

Hourly Weather History & Observations

Time (MDT) Temp. Windchill Dew Point Humidity Pressure Visibility Wind Dir Wind Speed Gust Speed Precip Events Conditions
12:15 AM 42.8 °F 38.0 °F 10.4 °F 27% 30.31 in 10.0 mi SE 8.1 mph - N/A   Clear
12:35 AM 42.8 °F 39.3 °F 10.4 °F 27% 30.31 in 10.0 mi ESE 5.8 mph - N/A   Clear
12:55 AM 42.8 °F 38.6 °F 10.4 °F 27% 30.31 in 10.0 mi SE 6.9 mph - N/A   Clear
1:15 AM 41.0 °F 36.4 °F 10.4 °F 29% 30.31 in 10.0 mi ESE 6.9 mph - N/A   Clear
1:35 AM 41.0 °F 36.4 °F 12.2 °F 31% 30.31 in 10.0 mi SE 6.9 mph - N/A   Clear
2:15 AM 41.0 °F 35.2 °F 12.2 °F 31% 30.29 in 10.0 mi SE 9.2 mph - N/A   Clear
2:35 AM 41.0 °F 36.4 °F 12.2 °F 31% 30.29 in 10.0 mi ESE 6.9 mph - N/A   Clear
2:55 AM 41.0 °F 37.1 °F 12.2 °F 31% 30.28 in 10.0 mi ESE 5.8 mph - N/A   Clear
3:15 AM 41.0 °F 36.4 °F 12.2 °F 31% 30.28 in 10.0 mi ESE 6.9 mph - N/A   Clear
3:35 AM 41.0 °F 35.8 °F 12.2 °F 31% 30.28 in 10.0 mi SE 8.1 mph - N/A   Clear
3:55 AM 41.0 °F 35.8 °F 12.2 °F 31% 30.27 in 10.0 mi SE 8.1 mph - N/A   Clear
4:15 AM 41.0 °F 35.2 °F 12.2 °F 31% 30.27 in 10.0 mi SE 9.2 mph - N/A   Clear
4:35 AM 41.0 °F 35.8 °F 12.2 °F 31% 30.27 in 10.0 mi SE 8.1 mph - N/A   Clear
4:55 AM 41.0 °F 35.2 °F 12.2 °F 31% 30.27 in 10.0 mi ESE 9.2 mph - N/A   Clear
5:15 AM 41.0 °F 35.8 °F 12.2 °F 31% 30.27 in 10.0 mi SE 8.1 mph - N/A   Clear
5:35 AM 39.2 °F 33.6 °F 14.0 °F 36% 30.28 in 10.0 mi ESE 8.1 mph - N/A   Clear
5:55 AM 39.2 °F 33.6 °F 14.0 °F 36% 30.28 in 10.0 mi SE 8.1 mph - N/A   Clear
6:15 AM 39.2 °F 34.2 °F 14.0 °F 36% 30.28 in 10.0 mi SE 6.9 mph - N/A   Clear
6:35 AM 39.2 °F 33.6 °F 14.0 °F 36% 30.28 in 10.0 mi SE 8.1 mph - N/A   Clear
6:55 AM 41.0 °F 36.4 °F 14.0 °F 33% 30.28 in 10.0 mi SE 6.9 mph - N/A   Clear
7:15 AM 39.2 °F 34.2 °F 14.0 °F 36% 30.29 in 10.0 mi SE 6.9 mph - N/A   Clear
7:35 AM 41.0 °F 36.4 °F 12.2 °F 31% 30.29 in 10.0 mi SE 6.9 mph - N/A   Clear
7:55 AM 42.8 °F 40.1 °F 14.0 °F 31% 30.30 in 10.0 mi ESE 4.6 mph - N/A   Clear
8:15 AM 44.6 °F 41.4 °F 14.0 °F 29% 30.29 in 10.0 mi ESE 5.8 mph - N/A   Clear
8:35 AM 46.4 °F - 15.8 °F 29% 30.29 in 10.0 mi Calm Calm - N/A   Clear
8:55 AM 48.2 °F - 14.0 °F 25% 30.29 in 10.0 mi ESE 5.8 mph - N/A   Clear
9:15 AM 50.0 °F - 14.0 °F 24% 30.29 in 10.0 mi Calm Calm - N/A   Clear
9:35 AM 53.6 °F - 15.8 °F 22% 30.29 in 10.0 mi East 3.5 mph - N/A   Clear
9:55 AM 55.4 °F - 10.4 °F 17% 30.29 in 10.0 mi Calm Calm - N/A   Clear
10:15 AM 57.2 °F - 10.4 °F 16% 30.29 in 10.0 mi East 5.8 mph - N/A   Clear
10:55 AM 57.2 °F - 12.2 °F 17% 30.29 in 10.0 mi East 3.5 mph - N/A   Clear
11:15 AM 59.0 °F - 10.4 °F 15% 30.28 in 10.0 mi Calm Calm - N/A   Clear
11:35 AM 59.0 °F - 10.4 °F 15% 30.28 in 10.0 mi SSE 15.0 mph 24.2 mph N/A   Clear
12:15 PM 60.8 °F - 10.4 °F 14% 30.28 in 10.0 mi SSE 4.6 mph 17.3 mph N/A   Scattered Clouds
12:35 PM 59.0 °F - 12.2 °F 16% 30.27 in 10.0 mi SE 8.1 mph - N/A   Scattered Clouds
12:55 PM 59.0 °F - 12.2 °F 16% 30.27 in 10.0 mi SE 6.9 mph - N/A   Scattered Clouds
1:15 PM 59.0 °F - 14.0 °F 17% 30.26 in 10.0 mi Calm Calm - N/A   Scattered Clouds
1:55 PM 60.8 °F - 12.2 °F 15% 30.25 in 10.0 mi SSW 8.1 mph 20.7 mph N/A   Mostly Cloudy
2:15 PM 60.8 °F - 10.4 °F 14% 30.24 in 10.0 mi SSE 3.5 mph - N/A   Mostly Cloudy
2:35 PM 60.8 °F - 6.8 °F 12% 30.23 in 10.0 mi South 8.1 mph 19.6 mph N/A   Mostly Cloudy
2:55 PM 60.8 °F - 5.0 °F 11% 30.22 in 10.0 mi South 15.0 mph 23.0 mph N/A   Mostly Cloudy
3:15 PM 60.8 °F - 5.0 °F 11% 30.22 in 10.0 mi WSW 4.6 mph 17.3 mph N/A   Scattered Clouds
3:35 PM 60.8 °F - 6.8 °F 12% 30.21 in 10.0 mi South 9.2 mph 18.4 mph N/A   Scattered Clouds
3:55 PM 60.8 °F - 5.0 °F 11% 30.21 in 10.0 mi SSW 10.4 mph 20.7 mph N/A   Scattered Clouds
4:15 PM 62.6 °F - 5.0 °F 10% 30.20 in 10.0 mi South 12.7 mph 24.2 mph N/A   Scattered Clouds
4:55 PM 60.8 °F - 5.0 °F 11% 30.19 in 10.0 mi South 9.2 mph 17.3 mph N/A   Mostly Cloudy
5:15 PM 60.8 °F - 6.8 °F 12% 30.19 in 10.0 mi SSW 13.8 mph 20.7 mph N/A   Scattered Clouds
5:35 PM 60.8 °F - 5.0 °F 11% 30.19 in 10.0 mi SW 10.4 mph 16.1 mph N/A   Scattered Clouds
5:55 PM 60.8 °F - 5.0 °F 11% 30.19 in 10.0 mi SSW 10.4 mph - N/A   Scattered Clouds
6:15 PM 60.8 °F - 6.8 °F 12% 30.19 in 10.0 mi SSW 8.1 mph 16.1 mph N/A   Scattered Clouds
6:35 PM 59.0 °F - 6.8 °F 13% 30.19 in 10.0 mi South 6.9 mph - N/A   Clear
6:55 PM 59.0 °F - 6.8 °F 13% 30.19 in 10.0 mi South 6.9 mph 17.3 mph N/A   Clear
7:15 PM 57.2 °F - 6.8 °F 13% 30.19 in 10.0 mi South 5.8 mph - N/A   Clear
7:35 PM 57.2 °F - 6.8 °F 13% 30.19 in 10.0 mi SSE 9.2 mph 17.3 mph N/A   Clear
7:55 PM 55.4 °F - 12.2 °F 18% 30.20 in 10.0 mi East 6.9 mph - N/A   Clear
8:15 PM 53.6 °F - 12.2 °F 19% 30.20 in 10.0 mi East 6.9 mph - N/A   Clear
8:35 PM 53.6 °F - 12.2 °F 19% 30.20 in 10.0 mi ESE 6.9 mph - N/A   Clear
9:15 PM 51.8 °F - 12.2 °F 21% 30.20 in 10.0 mi SE 8.1 mph - N/A   Clear
9:35 PM 51.8 °F - 14.0 °F 22% 30.20 in 10.0 mi SE 9.2 mph - N/A   Clear
9:55 PM 51.8 °F - 12.2 °F 21% 30.22 in 10.0 mi ESE 5.8 mph - N/A   Clear
10:15 PM 53.6 °F - 14.0 °F 21% 30.21 in 10.0 mi SSE 10.4 mph - N/A   Clear
10:35 PM 51.8 °F - 19.4 °F 28% 30.22 in 10.0 mi SSE 12.7 mph 21.9 mph N/A   Clear
10:55 PM 51.8 °F - 23.0 °F 33% 30.21 in 10.0 mi SSE 13.8 mph 23.0 mph N/A   Clear
11:15 PM 51.8 °F - 24.8 °F 35% 30.21 in 10.0 mi South 15.0 mph 21.9 mph N/A   Clear
11:35 PM 51.8 °F - 26.6 °F 38% 30.22 in 10.0 mi ENE 3.5 mph 17.3 mph N/A   Clear